Total_Precipitation_Accumulation
0.22 0.29 0.47 0.41 0.51 0.38 0.50 0.37 0.27 0.35 0.21 0.16 0.32 0.44 0.31 0.22 0.35 0.25 0.22 0.47 0.38 0.39 0.19 0.49 0.34 0.38 0.53 0.38 0.42 0.22 0.44 0.34 0.39 0.15 0.28 0.61 0.70 0.51 0.19 0.12 0.23 0.13 0.09
0.23 0.16 0.29 0.27 0.20 0.15 0.17 0.17 0.15 0.15 0.18 0.16 0.23 0.21 0.19 0.23 0.26 0.28 0.35 0.53 0.33 0.29 0.34 0.51 0.47 0.24 0.19 0.23 0.29 0.25 0.42 0.29 0.43 0.30 0.26 0.23 0.26 0.11 0.09 0.04 0.05 0.05 0.16
0.16 0.08 0.27 0.37 0.26 0.17 0.14 0.16 0.22 0.13 0.15 0.21 0.31 0.19 0.35 0.35 0.46 0.35 0.35 0.45 0.31 0.54 0.43 0.42 0.38 0.37 0.21 0.21 0.32 0.35 0.28 0.26 0.27 0.23 0.16 0.08 0.08 0.11 0.10 0.09 0.12 0.07 0.09
0.19 0.10 0.29 0.48 0.37 0.27 0.17 0.14 0.12 0.20 0.35 0.29 0.46 0.42 0.32 0.46 0.51 0.49 0.46 0.26 0.30 0.66 0.40 0.17 0.13 0.13 0.15 0.37 0.48 0.69 0.59 0.39 0.33 0.29 0.05 0.06 0.11 0.09 0.12 0.19 0.10 0.05 0.07
0.19 0.16 0.25 0.48 0.49 0.46 0.37 0.29 0.33 0.39 0.48 0.34 0.48 0.45 0.40 0.50 0.31 0.40 0.51 0.36 0.22 0.48 0.37 0.28 0.20 0.13 0.09 0.38 0.30 0.44 0.41 0.31 0.18 0.14 0.04 0.02 0.02 0.03 0.04 0.03 0.01 0.04 0.11
0.15 0.19 0.20 0.22 0.31 0.40 0.47 0.47 0.56 0.59 0.80 0.61 0.52 0.53 0.68 0.34 0.45 0.69 0.69 0.37 0.33 0.26 0.29 0.39 0.36 0.31 0.21 0.14 0.05 0.12 0.23 0.29 0.20 0.03 0.00 0.03 0.07 0.18 0.07 0.00 0.00 0.01 0.01
0.29 0.32 0.33 0.17 0.17 0.24 0.35 0.41 0.44 0.47 0.63 0.46 0.74 0.95 0.69 0.46 0.59 0.64 0.71 0.38 0.25 0.18 0.18 0.32 0.40 0.20 0.28 0.34 0.25 0.18 0.08 0.02 0.08 0.14 0.08 0.09 0.10 0.19 0.10 0.01 0.01 0.00 0.00
0.37 0.42 0.45 0.36 0.29 0.26 0.25 0.34 0.38 0.47 0.39 0.31 0.45 0.49 0.47 0.42 0.47 0.43 0.44 0.28 0.11 0.07 0.13 0.24 0.33 0.35 0.47 0.47 0.35 0.33 0.26 0.12 0.04 0.01 0.02 0.06 0.04 0.04 0.02 0.03 0.04 0.04 0.02
0.19 0.26 0.62 0.67 0.49 0.44 0.33 0.31 0.37 0.38 0.35 0.39 0.43 0.45 0.31 0.36 0.39 0.39 0.52 0.47 0.33 0.31 0.36 0.34 0.31 0.33 0.47 0.56 0.45 0.33 0.51 0.48 0.37 0.24 0.14 0.06 0.05 0.02 0.00 0.01 0.01 0.01 0.00
0.10 0.23 0.40 0.45 0.47 1.12 1.09 0.67 0.67 0.54 0.52 0.51 0.39 0.36 0.35 0.44 0.45 0.41 0.43 0.47 0.40 0.31 0.26 0.22 0.19 0.12 0.30 0.41 0.36 0.33 0.27 0.36 0.41 0.30 0.19 0.10 0.08 0.06 0.01 0.00 0.02 0.04 0.04
0.02 0.13 0.25 0.20 0.33 0.44 0.93 1.36 1.56 1.72 1.45 1.43 1.14 0.51 0.32 0.29 0.35 0.36 0.31 0.27 0.31 0.31 0.17 0.15 0.17 0.19 0.21 0.20 0.30 0.25 0.19 0.49 0.53 0.34 0.16 0.08 0.06 0.04 0.00 0.00 0.01 0.04 0.04
0.00 0.01 0.03 0.08 0.11 0.16 0.52 0.86 1.25 2.06 3.41 3.10 2.42 1.26 0.46 0.31 0.32 0.28 0.22 0.30 0.43 0.39 0.26 0.17 0.12 0.17 0.17 0.27 0.29 0.23 0.27 0.35 0.27 0.26 0.26 0.16 0.11 0.07 0.01 0.00 0.01 0.02 0.07
0.00 0.00 0.00 0.00 0.01 0.04 0.17 0.63 1.08 1.44 2.61 2.66 2.29 1.22 0.41 0.37 0.47 0.34 0.30 0.28 0.30 0.29 0.17 0.23 0.25 0.29 0.36 0.33 0.29 0.31 0.30 0.27 0.22 0.21 0.16 0.09 0.03 0.03 0.01 0.00 0.00 0.02 0.04
0.00 0.00 0.00 0.00 0.00 0.01 0.08 0.28 0.75 1.13 2.05 2.14 1.56 1.37 0.64 0.47 0.51 0.31 0.25 0.25 0.32 0.35 0.29 0.27 0.40 0.30 0.31 0.36 0.36 0.36 0.31 0.28 0.24 0.21 0.15 0.12 0.15 0.11 0.04 0.00 0.01 0.03 0.06
0.00 0.00 0.00 0.00 0.00 0.02 0.02 0.23 0.49 0.81 1.30 1.89 2.02 1.31 0.93 0.69 0.44 0.29 0.20 0.14 0.16 0.30 0.39 0.35 0.35 0.34 0.27 0.20 0.20 0.21 0.20 0.31 0.36 0.25 0.20 0.22 0.14 0.07 0.03 0.01 0.01 0.04 0.08
0.00 0.00 0.00 0.00 0.00 0.04 0.02 0.05 0.10 0.45 1.14 1.57 0.96 0.67 0.45 0.42 0.53 0.37 0.15 0.09 0.15 0.24 0.27 0.28 0.28 0.25 0.19 0.11 0.10 0.11 0.10 0.11 0.11 0.19 0.31 0.27 0.13 0.03 0.01 0.00 0.01 0.01 0.02
0.00 0.00 0.00 0.00 0.00 0.02 0.04 0.02 0.03 0.02 0.01 0.04 0.03 0.02 0.02 0.03 0.11 0.16 0.16 0.11 0.10 0.13 0.10 0.10 0.14 0.18 0.17 0.11 0.07 0.06 0.04 0.05 0.05 0.04 0.06 0.10 0.07 0.02 0.01 0.01 0.00 0.00 0.00
0.00 0.00 0.00 0.01 0.01 0.01 0.03 0.09 0.06 0.03 0.01 0.03 0.04 0.03 0.02 0.05 0.10 0.10 0.09 0.08 0.04 0.04 0.08 0.07 0.07 0.09 0.12 0.12 0.06 0.04 0.03 0.03 0.04 0.04 0.04 0.02 0.02 0.02 0.02 0.01 0.00 0.00 0.00
0.02 0.02 0.02 0.01 0.01 0.01 0.01 0.05 0.06 0.04 0.01 0.01 0.01 0.06 0.07 0.08 0.07 0.09 0.07 0.04 0.03 0.03 0.03 0.05 0.06 0.08 0.06 0.04 0.03 0.03 0.02 0.01 0.03 0.05 0.09 0.05 0.02 0.04 0.04 0.02 0.00 0.01 0.00
0.03 0.02 0.01 0.01 0.01 0.02 0.04 0.06 0.06 0.06 0.07 0.07 0.05 0.05 0.06 0.03 0.02 0.02 0.03 0.03 0.03 0.06 0.10 0.10 0.06 0.05 0.09 0.08 0.03 0.02 0.03 0.02 0.01 0.03 0.06 0.12 0.07 0.05 0.08 0.05 0.00 0.01 0.00
0.03 0.01 0.02 0.02 0.03 0.03 0.04 0.07 0.10 0.10 0.08 0.07 0.03 0.03 0.07 0.04 0.04 0.04 0.05 0.06 0.05 0.06 0.07 0.09 0.09 0.10 0.11 0.11 0.08 0.08 0.09 0.05 0.02 0.04 0.07 0.10 0.13 0.10 0.04 0.02 0.00 0.00 0.00
0.03 0.02 0.02 0.02 0.02 0.02 0.02 0.05 0.08 0.07 0.04 0.05 0.05 0.04 0.04 0.02 0.04 0.05 0.05 0.04 0.03 0.03 0.03 0.06 0.08 0.13 0.12 0.10 0.08 0.09 0.09 0.07 0.03 0.07 0.14 0.15 0.16 0.15 0.11 0.08 0.03 0.01 0.00
0.02 0.02 0.01 0.01 0.01 0.03 0.03 0.02 0.04 0.05 0.05 0.06 0.09 0.07 0.08 0.08 0.06 0.05 0.06 0.05 0.02 0.01 0.00 0.01 0.03 0.06 0.12 0.10 0.08 0.06 0.08 0.05 0.09 0.08 0.05 0.11 0.16 0.18 0.15 0.10 0.06 0.02 0.01
0.01 0.01 0.01 0.01 0.02 0.05 0.06 0.08 0.12 0.15 0.13 0.12 0.08 0.07 0.08 0.17 0.21 0.17 0.14 0.10 0.07 0.03 0.01 0.00 0.02 0.01 0.09 0.14 0.13 0.13 0.10 0.06 0.04 0.07 0.06 0.07 0.12 0.16 0.14 0.10 0.04 0.01 0.04
0.02 0.01 0.03 0.04 0.07 0.05 0.08 0.12 0.22 0.27 0.29 0.26 0.15 0.14 0.18 0.25 0.28 0.29 0.31 0.25 0.12 0.03 0.01 0.00 0.00 0.00 0.01 0.08 0.09 0.12 0.19 0.15 0.03 0.06 0.05 0.03 0.04 0.04 0.04 0.06 0.04 0.00 0.03
0.02 0.03 0.05 0.05 0.15 0.15 0.23 0.26 0.31 0.24 0.20 0.25 0.26 0.30 0.38 0.44 0.46 0.40 0.34 0.28 0.25 0.11 0.06 0.05 0.01 0.02 0.02 0.01 0.04 0.18 0.23 0.23 0.10 0.04 0.06 0.06 0.05 0.04 0.01 0.00 0.00 0.00 0.05